Probability
0 0 0 0 0 0 0 0 0 0 0 0 0 0 0 0 0 0 0 0 0 0 0 0 0 0 0 0 0 0 0 1 1 1 0 0 1 2 2 1 0 0 0
0 0 0 0 0 0 0 0 0 0 0 0 0 0 0 0 0 0 0 0 0 0 0 0 0 0 0 0 0 0 0 0 0 0 0 0 1 3 3 1 1 0 0
0 0 0 0 0 0 0 0 0 0 0 0 0 0 0 0 0 0 0 0 0 0 0 0 0 0 0 0 0 0 0 0 0 0 0 0 2 3 4 3 2 0 0
0 0 0 0 0 0 0 0 0 0 0 0 0 0 0 0 0 0 0 0 0 0 0 0 0 0 0 0 0 0 0 0 0 0 0 0 1 3 4 4 2 0 0
0 0 0 0 0 0 0 0 0 0 0 0 0 0 0 0 0 0 0 0 0 0 0 0 0 0 0 0 0 0 0 0 0 0 0 0 1 3 4 3 1 0 0
0 0 0 0 0 0 0 0 0 0 0 0 0 0 0 0 0 0 0 0 0 0 0 0 0 0 0 0 0 0 0 0 0 0 0 0 1 3 4 3 2 0 0
0 0 0 0 0 0 0 0 0 0 0 0 0 0 0 0 0 0 0 0 0 0 0 0 0 0 0 0 0 0 0 0 0 0 0 1 1 3 4 3 2 1 0
0 0 0 0 0 0 0 0 0 0 0 0 0 0 0 0 0 0 0 0 0 0 0 0 0 0 0 0 0 0 0 0 0 1 1 2 2 2 2 2 1 1 1
0 0 0 0 0 0 0 0 0 0 0 0 0 0 0 0 0 0 0 0 0 0 0 0 0 0 0 0 0 0 0 0 0 1 2 2 2 1 1 1 1 0 0
0 0 0 0 0 0 0 0 0 0 0 0 0 0 0 0 0 0 0 0 0 0 0 0 0 0 0 0 0 0 0 0 0 1 1 1 1 2 2 2 1 0 0
0 0 0 0 0 0 0 0 0 0 0 0 0 0 0 0 0 0 0 0 0 0 0 0 0 0 0 0 0 0 0 0 0 0 0 0 1 2 3 2 1 0 0
0 0 0 0 0 0 0 0 0 0 0 0 0 0 0 0 0 0 0 0 0 0 0 0 0 0 0 0 0 0 0 0 0 0 0 0 1 2 2 1 1 0 0
0 0 0 0 0 0 0 0 0 0 0 0 0 0 0 0 0 0 0 0 0 0 0 0 0 0 0 0 0 0 0 0 0 0 0 0 1 1 1 0 0 0 0
0 0 0 0 0 0 0 0 0 0 0 0 0 0 0 0 0 0 0 0 0 0 0 0 0 0 0 0 0 0 0 0 0 0 0 0 0 0 0 0 0 0 1
0 0 0 0 0 0 0 0 0 0 0 0 0 0 0 0 0 0 0 0 0 0 0 0 0 0 0 0 0 0 0 0 0 0 0 0 0 0 0 0 0 0 1
0 0 0 0 0 0 0 0 0 0 0 0 0 0 0 0 0 0 0 0 0 0 0 0 0 0 0 0 0 0 0 0 0 0 0 0 0 0 0 0 0 0 1
0 0 0 0 0 0 0 0 0 0 0 0 0 0 0 0 0 0 0 0 0 0 0 0 0 0 0 0 0 0 0 0 0 0 0 0 0 0 0 0 0 0 0
0 0 0 0 0 0 0 0 0 0 0 0 0 0 0 0 0 0 0 0 0 0 0 0 0 0 0 0 0 0 0 0 0 0 0 0 0 0 0 0 0 0 0
0 0 0 0 0 0 0 0 0 0 0 0 0 0 0 0 0 0 0 0 0 0 0 0 0 0 0 0 0 0 0 0 0 0 0 0 0 0 0 0 0 0 0
0 0 0 0 0 0 0 0 0 0 0 0 0 0 0 0 0 0 0 0 0 0 0 0 0 0 0 0 0 0 0 0 0 0 0 0 0 0 0 0 0 0 0
0 0 0 0 0 0 0 0 0 0 0 0 0 0 0 0 0 0 0 0 0 0 0 0 0 0 0 0 0 0 0 0 0 0 0 0 0 0 0 0 0 0 0
0 0 0 0 0 0 0 0 0 0 0 0 0 0 0 0 0 0 0 0 0 0 0 0 0 0 0 0 0 0 0 0 0 0 0 0 0 0 0 0 0 0 0
0 0 0 0 0 0 0 0 0 0 0 0 0 0 0 0 0 0 0 0 0 0 0 0 0 0 0 0 0 0 0 0 0 0 0 0 0 0 0 0 0 0 0
0 0 0 0 0 0 0 0 0 0 0 0 0 0 0 0 0 0 0 0 0 0 0 0 0 0 0 0 0 0 0 0 0 0 0 0 0 0 0 0 0 0 0
0 0 0 0 0 0 0 0 0 0 0 0 0 0 0 0 0 0 0 0 0 0 0 0 0 0 0 0 0 0 0 0 0 0 0 0 0 0 0 0 0 0 0
0 0 0 0 0 0 0 0 0 0 0 0 0 0 0 0 0 0 0 0 0 0 0 0 0 0 0 0 0 0 0 0 0 0 0 0 0 0 0 0 0 0 0
Wind_Speed
3 3 3 3 4 3 3 4 4 4 5 5 4 5 5 4 4 4 3 8 8 8 8 9 9 9 9 9 10 9 9 9 9 9 9 8 8 7 7 6 6 5 5
3 3 3 3 3 3 3 3 3 3 3 3 4 4 4 4 4 4 4 6 10 9 9 8 8 8 9 9 9 9 9 9 8 8 8 8 7 7 7 6 6 6 5
3 3 3 3 3 3 3 3 4 3 4 4 4 4 4 4 4 4 5 4 5 9 10 9 9 9 8 8 8 9 8 8 8 8 8 7 7 6 6 7 6 6 6
4 3 3 3 3 3 3 3 3 3 4 3 3 3 3 3 4 4 4 5 4 4 7 10 10 9 9 8 8 8 8 8 8 7 7 7 6 6 6 6 5 5 6
4 3 3 2 3 3 3 3 3 2 3 3 2 3 3 3 3 4 5 5 5 5 4 7 10 10 9 8 8 7 8 8 8 7 6 6 6 6 6 6 5 5 5
3 3 3 3 3 3 3 3 3 3 2 2 3 3 3 3 3 3 3 4 4 5 5 5 5 6 9 9 8 8 8 7 8 7 6 5 5 5 5 6 6 6 5
3 3 3 3 3 3 3 3 2 3 3 2 2 3 3 3 3 3 3 3 4 4 4 4 4 3 4 8 9 8 8 8 8 7 6 5 5 4 4 5 6 5 5
3 3 3 2 2 2 3 3 3 2 2 3 2 2 3 4 3 4 3 3 3 3 3 4 4 4 3 3 6 8 9 8 9 7 7 6 5 5 4 5 5 5 4
2 2 2 2 2 2 1 2 2 2 1 1 2 2 2 1 3 3 3 3 3 3 3 3 3 3 3 3 3 6 8 9 9 9 7 7 6 6 5 4 4 5 4
2 2 1 1 1 1 1 1 1 1 2 1 1 1 1 2 1 2 3 2 3 3 3 3 3 3 3 3 4 6 8 8 8 9 8 7 6 5 5 4 4 4 4
1 1 1 1 1 1 1 1 1 1 1 1 0 0 1 1 1 1 2 3 3 2 2 2 2 2 3 2 3 4 7 7 7 8 8 7 7 6 5 4 4 3 3
1 2 1 1 1 0 0 0 1 1 1 1 1 1 1 0 1 1 1 2 3 3 2 2 1 2 2 2 3 6 6 6 7 8 8 7 6 6 5 4 4 3 2
1 1 1 1 0 1 0 0 1 1 1 1 1 0 0 0 1 1 1 1 1 2 2 2 1 1 2 2 2 6 5 6 7 7 7 7 7 6 6 5 4 3 2
1 1 0 0 0 1 1 1 1 0 1 0 0 0 0 1 1 1 1 1 0 2 2 2 2 1 2 2 2 4 4 6 6 7 7 7 7 6 6 5 4 3 2
0 0 0 0 0 0 0 1 1 0 0 0 0 0 0 1 1 1 1 1 2 0 2 2 2 2 2 1 3 2 2 5 6 6 6 6 6 6 5 5 4 3 3
0 0 0 0 0 1 1 1 0 0 1 0 0 0 1 1 1 0 0 0 1 2 1 2 2 2 2 2 3 2 2 5 5 5 5 6 6 5 5 4 4 3 3
1 1 0 0 0 1 1 1 1 1 0 1 1 1 1 1 1 1 0 0 1 2 2 2 1 1 1 2 3 2 2 2 2 5 5 5 5 5 4 4 4 3 2
0 1 1 0 0 0 0 0 0 1 0 1 1 1 2 1 1 1 0 1 1 1 2 2 2 1 1 2 2 2 2 2 2 4 5 5 5 5 4 4 3 3 2
0 1 1 1 0 0 0 1 1 0 0 1 1 1 1 1 1 1 1 1 1 1 1 1 1 1 1 2 2 2 2 2 2 3 4 4 5 5 4 3 3 3 3
1 1 0 0 0 0 0 0 0 1 1 1 1 1 1 1 1 2 1 1 1 0 0 0 1 1 1 1 1 1 2 2 2 2 3 3 4 5 4 4 3 3 2
1 1 1 1 1 0 0 0 1 1 1 1 2 2 2 2 3 2 2 1 0 1 0 0 1 1 1 1 1 1 1 2 2 1 2 2 2 2 2 3 3 3 2
1 2 2 2 2 2 3 3 1 1 1 1 2 3 3 3 3 4 4 2 1 1 1 1 1 2 3 2 1 1 1 1 2 1 1 2 1 1 2 2 3 2 1
2 2 1 1 1 2 3 3 3 2 1 0 1 2 2 3 4 2 3 3 2 2 2 2 2 3 3 2 2 2 2 2 2 1 0 2 1 2 2 2 4 3 2
2 1 0 0 1 2 3 3 3 2 1 1 1 1 2 3 3 3 1 2 2 2 3 2 2 3 3 3 3 3 3 1 2 1 1 1 1 2 2 2 4 3 3
1 1 1 1 0 2 3 2 3 1 1 1 2 2 2 2 4 4 1 1 3 3 4 4 4 3 4 3 1 0 0 0 1 2 1 1 1 1 2 2 3 3 3
1 1 1 0 0 1 2 2 2 1 0 1 2 2 3 4 5 4 1 1 2 3 3 3 3 4 3 3 2 1 1 1 1 2 1 1 1 1 2 2 2 2 2
Wind_Direction
46 41 39 40 38 36 38 37 43 42 39 39 47 50 42 34 27 22 12 30 37 43 45 49 53 55 58 57 54 51 48 45 43 41 40 39 40 47 50 58 59 55 53
53 52 45 40 34 32 37 44 46 47 40 40 42 41 37 27 24 24 22 23 31 37 43 47 50 54 56 54 53 48 43 41 41 40 38 36 39 45 49 54 56 53 55
56 58 51 40 28 31 42 50 47 46 44 42 37 32 38 32 29 27 28 27 23 31 40 44 47 50 49 50 47 45 41 37 37 37 36 35 39 45 53 53 54 55 57
57 60 55 39 26 37 44 55 48 48 40 35 30 22 31 31 29 30 33 32 27 23 27 37 42 44 43 42 41 39 38 35 32 32 31 30 38 44 48 50 49 52 54
57 66 60 43 37 44 41 51 52 55 50 34 35 30 24 28 26 35 35 32 31 29 23 27 32 32 33 33 32 31 33 30 24 21 25 27 34 41 43 45 43 50 54
54 64 64 49 47 53 44 43 56 45 48 31 44 37 20 17 28 34 30 29 28 28 24 23 20 16 23 22 23 24 24 20 17 19 24 26 32 40 40 41 41 49 54
52 63 64 55 51 57 55 51 59 53 33 22 46 23 9 20 31 30 29 28 25 18 22 23 18 11 5 9 11 15 16 17 19 21 21 23 26 29 37 37 43 45 48
51 63 68 65 59 64 54 53 61 66 37 29 53 56 8 356 7 21 23 33 23 15 20 18 11 8 6 0 354 10 15 19 18 17 20 22 23 22 35 44 44 40 41
47 55 65 70 67 77 74 55 73 87 70 10 42 91 99 291 321 342 10 23 17 20 7 3 8 4 3 3 351 7 14 17 17 17 18 22 26 31 36 39 36 34 38
28 45 63 72 79 78 79 59 76 65 100 43 5 31 113 157 134 325 335 2 7 10 356 357 357 355 359 1 358 5 9 11 12 12 14 18 25 27 30 31 28 30 38
6 21 57 76 72 79 94 80 78 71 85 101 75 15 40 39 76 155 302 326 344 343 338 336 347 350 355 3 351 1 6 7 9 11 10 14 19 20 26 22 13 21 36
351 8 40 64 52 38 360 159 132 110 96 92 86 96 120 141 228 168 221 297 311 314 328 337 352 347 349 356 348 357 0 2 5 7 5 10 14 14 12 16 9 19 44
328 325 359 25 9 320 323 115 116 119 119 118 130 184 143 196 195 174 165 251 297 307 326 338 326 330 342 354 343 352 354 359 358 358 2 8 11 10 11 12 11 23 52
252 273 316 327 327 336 12 77 92 115 102 132 10 189 178 263 214 185 183 174 333 327 329 306 320 315 331 330 325 345 348 350 353 353 1 6 7 6 6 11 10 23 48
252 282 202 253 309 339 39 88 74 288 130 198 230 190 292 277 271 246 198 186 164 227 290 287 299 311 310 299 327 346 340 339 347 356 4 6 4 2 2 7 7 14 42
105 88 20 278 307 350 34 83 62 3 81 313 216 355 311 303 310 300 228 210 171 174 231 269 259 288 304 322 333 344 332 336 338 351 359 357 355 356 1 2 1 7 31
162 154 158 62 10 17 21 58 8 9 36 327 340 337 307 312 313 317 324 151 178 162 207 279 281 301 304 319 332 333 325 326 330 342 345 347 347 351 356 358 353 3 28
158 166 155 122 261 99 249 157 275 326 271 294 306 311 299 325 318 307 268 241 236 202 185 249 284 311 308 314 315 311 316 326 322 328 332 335 339 340 341 343 347 357 354
84 78 101 134 205 254 229 229 219 271 280 306 300 296 300 338 309 299 285 266 252 247 202 204 276 304 320 329 329 315 322 323 313 322 326 327 333 336 330 337 342 345 337
119 99 85 138 195 264 245 234 95 70 34 359 333 316 312 285 276 280 284 264 239 195 155 204 297 305 298 307 327 321 329 327 315 324 327 331 336 331 334 341 339 331 320
83 78 63 37 24 24 355 120 137 97 68 8 348 330 314 310 309 313 315 280 206 156 138 282 284 294 291 312 298 283 307 317 308 312 331 331 335 340 334 324 324 318 306
77 72 65 58 33 4 5 28 69 108 88 28 332 321 313 320 327 332 324 320 300 178 208 221 247 260 269 258 247 263 279 330 309 320 342 311 338 309 305 298 307 302 288
102 83 61 60 31 344 6 28 39 86 85 20 305 315 325 332 337 336 341 346 323 303 270 232 242 253 248 243 225 240 233 239 256 285 330 294 325 296 292 297 298 294 281
125 120 99 65 26 349 8 28 43 53 46 348 310 303 304 317 325 344 359 357 334 313 288 269 242 248 252 242 222 223 220 239 279 282 198 272 304 282 300 300 300 296 290
140 141 151 129 60 337 356 22 45 75 47 327 311 327 324 308 319 343 10 342 331 324 324 323 312 306 302 302 294 95 154 170 278 280 214 226 275 293 303 304 309 315 306
150 138 97 92 192 297 333 4 33 85 34 317 322 321 328 332 336 346 355 323 312 310 328 340 348 345 342 335 328 269 203 204 235 267 230 205 250 310 314 301 312 317 304